1507201201.14,2545,12.88,72908.5,2.69,1.71,1.47,0,*43
1507201202.39,2546,12.88,72920.8,2.69,1.85,1.63,0,*4D
1507201203.64,2547,12.88,72914.8,2.69,2.09,1.93,0,*44
1507201204.89,2548,12.88,72912.3,2.69,2.09,1.85,0,*4C
1507201206.11,2549,12.88,72902.0,2.71,2.01,1.89,0,*40
1507201207.33,2550,12.88,72904.3,2.71,2.13,1.97,0,*44
1507201208.55,2551,12.88,72906.8,2.71,2.25,2.05,0,*48
1507201209.75,2552,12.88,72890.0,2.71,2.27,2.05,0,*49
1507201210.98,2553,12.88,72882.3,2.73,2.35,2.05,0,*49
1507201212.24,2554,12.88,72888.8,2.73,2.17,2.01,0,*4A
1507201213.46,2555,12.88,72914.8,2.71,2.25,2.01,0,*48
1507201214.71,2556,12.88,72880.8,2.73,2.25,2.01,0,*49
1507201215.96,2557,12.88,72880.3,2.73,2.25,2.01,0,*48
1507201217.22,2558,12.88,72878.0,2.73,2.17,2.01,0,*46
1507201218.42,2559,12.88,72876.3,2.75,2.27,2.09,0,*4A
1507201219.64,2560,12.88,72894.0,2.75,2.21,2.01,0,*4E
1507201220.85,2561,12.88,72868.3,2.79,2.35,2.13,0,*45
1507201222.05,2562,12.88,72864.3,2.79,2.35,2.13,0,*46
1507201223.25,2563,12.88,72884.0,2.75,2.05,1.79,0,*47
1507201224.47,2564,12.88,72926.8,2.75,2.09,1.93,0,*48
1507201225.68,2565,12.88,72880.0,2.75,2.01,1.79,0,*45
1507201226.88,2566,12.88,72898.8,2.75,2.01,1.79,0,*46
1507201228.1,2567,12.88,72870.8,2.79,1.97,1.71,0,*4F
1507201229.33,2568,12.88,72858.8,2.75,1.71,1.47,0,*41
1507201230.55,2569,12.88,72862.0,2.75,1.59,1.33,0,*49
1507201231.79,2570,12.88,72876.0,2.75,1.55,1.33,0,*4D
1507201233.01,2571,12.88,72870.0,2.75,1.59,1.37,0,*44
1507201234.24,2572,12.88,72868.0,2.75,1.67,1.37,0,*4A
1507201235.43,2573,12.88,72888.0,2.71,1.67,1.41,0,*4E
1507201236.68,2574,12.88,72866.5,2.73,1.85,1.67,0,*43
1507201237.94,2575,12.88,72876.0,2.73,1.85,1.63,0,*46
1507201239.19,2576,12.88,72890.0,2.73,1.85,1.67,0,*41
1507201240.42,2577,12.88,72872.3,2.73,1.79,1.63,0,*47
1507201241.66,2578,12.88,72868.3,2.73,1.89,1.67,0,*43
1507201242.91,2579,12.88,72852.3,2.73,1.89,1.67,0,*42
1507201244.14,2580,12.88,72854.5,2.73,1.89,1.75,0,*47
1507201245.37,2581,12.88,72830.3,2.73,1.79,1.55,0,*4B
1507201246.61,2582,12.88,72840.3,2.73,1.67,1.43,0,*40
1507201247.83,2583,12.88,72830.5,2.73,1.63,1.41,0,*47
1507201249.06,2584,12.88,72850.5,2.75,1.67,1.37,0,*43
1507201250.28,2585,12.88,72834.5,2.73,1.75,1.43,0,*44
1507201251.54,2586,12.88,72830.0,2.73,1.55,1.33,0,*42
1507201252.79,2587,12.88,72806.0,2.73,1.67,1.55,0,*42
1507201254.04,2588,12.88,72844.0,2.73,1.67,1.43,0,*4A
1507201255.22,2589,12.88,72854.8,2.71,0.43,0.29,0,*43
1507201256.42,2590,12.88,72876.0,2.71,1.33,1.41,0,*42
1507201257.61,2591,12.88,72836.3,2.71,1.89,1.79,0,*49
1507201258.84,2592,12.88,72850.3,2.69,1.85,1.83,0,*4A
1507201260.09,2593,12.88,72858.5,2.69,1.71,1.51,0,*4F
1507201261.32,2594,12.88,72828.3,2.71,1.51,1.33,0,*47
1507201262.54,2595,12.88,72834.3,2.71,1.55,1.43,0,*45
1507201263.76,2596,12.88,72802.8,2.69,1.41,1.29,0,*46
1507201264.98,2597,12.88,72870.3,2.67,1.41,1.29,0,*49
1507201266.22,2598,12.88,72862.8,2.69,1.59,1.47,0,*49
1507201267.44,2599,12.88,72846.8,2.67,1.75,1.47,0,*48
1507201268.7,2600,12.88,72844.8,2.69,1.29,1.17,0,*49
1507201269.93,2601,12.88,72880.3,2.67,1.59,1.47,0,*44
1507201271.18,2602,12.88,72874.5,2.69,2.01,1.93,0,*4E
1507201272.43,2603,12.88,72870.5,2.69,2.13,2.01,0,*44
1507201273.68,2604,12.88,72878.5,2.69,2.13,1.97,0,*4F
1507201274.93,2605,12.88,72890.8,2.73,2.25,2.05,0,*48
1507201276.13,2606,12.88,72892.5,2.71,2.47,2.35,0,*4E
1507201277.33,2607,12.88,72890.3,2.71,2.39,2.27,0,*45
1507201278.55,2608,12.88,72890.8,2.73,2.47,2.35,0,*42
1507201279.77,2609,12.88,72888.0,2.73,2.61,2.61,0,*46
1507201280.99,2610,12.88,72892.5,2.73,2.73,2.61,0,*4D
1507201282.25,2611,12.88,72896.3,2.73,2.59,2.47,0,*40
1507201283.48,2612,12.88,72902.3,2.79,2.59,2.43,0,*4D
1507201284.69,2613,12.88,72920.5,2.79,2.61,2.51,0,*44
1507201285.89,2614,12.88,72920.8,2.75,2.27,2.09,0,*40
1507201287.11,2615,12.88,72918.5,2.79,2.13,2.05,0,*46
1507201288.32,2616,12.88,72912.3,2.79,2.31,2.13,0,*42
1507201289.55,2617,12.88,72906.0,2.75,2.43,2.17,0,*4E
1507201290.78,2618,12.88,72904.5,2.81,2.43,2.31,0,*4E
1507201292.01,2619,12.88,72906.5,2.81,2.31,2.13,0,*4A
1507201293.26,2620,12.88,72888.0,2.81,2.21,2.05,0,*46
1507201294.51,2621,12.88,72876.0,2.81,2.43,2.25,0,*41
1507201295.76,2622,12.88,72896.5,2.81,2.09,1.93,0,*42
1507201297.02,2623,12.88,72910.0,2.81,2.05,1.85,0,*48
1507201298.26,2624,12.88,72914.0,2.81,2.05,1.97,0,*4C
1507201299.52,2625,12.88,72908.8,2.81,2.25,2.05,0,*47
1507201300.74,2626,12.88,72916.8,2.81,2.43,2.31,0,*43
1507201301.94,2627,12.88,72914.8,2.83,2.73,2.61,0,*46
1507201303.16,2628,12.88,72906.0,2.83,2.73,2.59,0,*42
1507201304.39,2629,12.88,72888.0,2.83,2.73,2.51,0,*4B
1507201305.61,2630,12.88,72892.3,2.85,2.73,2.61,0,*46
1507201306.86,2631,12.88,72900.8,2.85,2.39,2.25,0,*49
1507201308.11,2632,12.88,72914.5,2.85,2.39,2.21,0,*4E
1507201309.36,2633,12.88,72912.8,2.85,2.69,2.51,0,*4D
1507201310.59,2634,12.88,72918.0,2.85,2.61,2.51,0,*42
1507201311.79,2635,12.88,72914.5,2.87,2.61,2.43,0,*42
1507201312.99,2636,12.88,72870.0,2.87,2.51,2.31,0,*47
1507201314.19,2637,12.88,72858.0,2.87,2.27,2.13,0,*47
1507201315.44,2638,12.88,72866.8,2.85,2.13,2.01,0,*4E
1507201316.66,2639,12.88,72888.5,2.87,2.43,2.21,0,*4A
1507201317.89,2640,12.88,72892.8,2.85,2.35,2.13,0,*46
1507201319.11,2641,12.88,72880.5,2.89,2.27,2.05,0,*4F
1507201320.36,2642,12.88,72880.5,2.85,2.25,2.13,0,*45
1507201321.59,2643,12.88,72882.8,2.87,2.55,2.43,0,*44
1507201322.78,2644,12.88,72852.0,2.87,2.55,2.31,0,*46
1507201324.03,2645,12.88,72870.8,2.85,2.13,2.01,0,*44
1507201325.28,2646,12.88,72910.8,2.89,2.21,2.17,0,*4D
1507201326.47,2647,12.88,72924.5,2.87,2.51,2.27,0,*46
1507201327.72,2648,12.88,72936.5,2.89,2.55,2.39,0,*4C
1507201328.95,2649,12.88,72936.5,2.91,2.81,2.69,0,*48
1507201330.15,2650,12.88,72942.0,2.91,2.91,2.77,0,*4E
1507201331.37,2651,12.88,72930.3,2.91,2.89,2.69,0,*49
1507201332.6,2652,12.88,72934.5,2.89,2.61,2.51,0,*4E
1507201333.82,2653,12.88,72928.3,2.89,2.61,2.39,0,*41
1507201335.02,2654,12.88,72926.8,2.91,2.65,2.55,0,*41
1507201336.22,2655,12.88,72920.3,2.91,2.55,2.35,0,*45
1507201337.46,2656,12.88,72922.5,2.93,2.73,2.59,0,*4A
1507201338.7,2657,12.88,72910.5,2.93,2.69,2.47,0,*4F
1507201339.94,2658,12.88,72900.8,2.93,2.51,2.25,0,*4F
1507201341.16,2659,12.88,72900.5,2.93,2.51,2.35,0,*4F
1507201342.39,2660,12.88,72900.0,2.93,2.61,2.51,0,*44
1507201343.63,2661,12.88,72902.8,2.93,2.85,2.73,0,*4F
1507201344.85,2662,12.88,72942.8,2.93,2.91,2.81,0,*44
1507201346.08,2663,12.88,72962.5,2.93,2.91,2.81,0,*45
1507201347.28,2664,12.88,72970.3,2.95,2.91,2.81,0,*44
1507201348.5,2665,12.88,72974.3,2.95,2.59,2.47,0,*4B
1507201349.69,2666,12.88,72970.8,2.95,2.27,2.21,0,*41
1507201350.91,2667,12.88,72954.3,2.95,2.21,2.01,0,*44
1507201352.14,2668,12.88,72938.3,2.93,1.89,1.67,0,*4F
1507201353.35,2669,12.88,72916.8,2.95,2.21,1.97,0,*46
1507201354.57,2670,12.88,72894.5,2.95,2.21,2.01,0,*42
1507201355.76,2671,12.88,72892.8,2.95,2.01,1.75,0,*41
1507201356.99,2672,12.88,72898.3,2.95,2.01,1.85,0,*4D
1507201358.2,2673,12.88,72894.3,2.93,1.75,1.51,0,*43
1507201359.42,2674,12.88,72904.3,2.93,1.89,1.79,0,*4D
1507201360.66,2675,12.88,72940.0,2.93,2.47,2.25,0,*47
1507201361.88,2676,12.88,72942.5,2.93,2.35,2.25,0,*41
1507201363.13,2677,12.88,72944.0,2.93,2.51,2.39,0,*4F
1507201364.37,2678,12.88,72906.8,2.93,2.39,2.25,0,*43
1507201365.62,2679,12.88,72914.8,2.93,2.81,2.59,0,*4A
1507201366.82,2680,12.88,72910.3,2.95,2.85,2.61,0,*45
1507201368.01,2681,12.88,72902.5,2.95,2.91,2.73,0,*42
1507201369.24,2682,12.88,72918.5,2.95,2.81,2.59,0,*48
1507201370.47,2683,12.88,72878.8,2.97,2.65,2.43,0,*4A
1507201371.69,2684,12.88,72900.8,2.95,2.81,2.59,0,*4E
1507201372.91,2685,12.88,72906.0,2.97,2.89,2.65,0,*4A
1507201374.13,2686,12.88,72922.0,3.01,2.73,2.55,0,*41
1507201375.38,2687,12.88,72944.0,2.97,2.73,2.43,0,*49
1507201376.57,2688,12.88,72916.3,3.01,2.43,2.27,0,*49
1507201377.8,2689,12.88,72914.3,3.01,2.51,2.25,0,*49
1507201379.02,2690,12.88,72922.0,3.01,-0.27,-1.35,0,*70
1507201380.28,2691,12.88,72930.5,2.97,1.33,1.21,0,*4E
1507201381.48,2692,12.88,72900.3,2.95,2.39,2.27,0,*43
1507201382.67,2693,12.88,72912.8,2.95,2.73,2.61,0,*4E
1507201383.9,2694,12.88,72922.8,2.97,2.65,2.55,0,*4B
1507201385.08,2695,12.88,72916.0,3.01,2.65,2.65,0,*47
1507201386.33,2696,12.88,72910.5,2.97,2.51,2.43,0,*49
1507201387.53,2697,12.88,72902.3,3.01,2.31,2.25,0,*40
1507201388.75,2698,12.88,72894.8,2.97,2.39,2.31,0,*4C
1507201389.95,2699,12.88,72886.3,3.01,2.43,2.27,0,*49
1507201391.12,2700,12.88,72868.0,3.01,2.31,2.27,0,*4D
1507201392.34,2701,12.88,72850.5,3.01,2.13,2.01,0,*48
1507201393.59,2702,12.88,72854.0,2.97,2.13,2.01,0,*45
1507201394.83,2703,12.88,72870.8,2.97,2.13,2.01,0,*44
1507201396.09,2704,12.88,72878.0,2.97,2.17,2.05,0,*43
1507201397.28,2705,12.88,72886.5,3.01,2.43,2.31,0,*4A
1507201398.48,2706,12.88,72898.8,2.97,2.31,2.27,0,*45
1507201399.7,2707,12.88,72892.0,2.97,2.39,2.31,0,*4B
1507201400.92,2708,12.94,72888.5,3.01,2.25,2.05,0,*40
1507201402.12,2709,12.88,72904.5,3.01,2.27,2.17,0,*40
1507201403.32,2710,12.88,72906.3,3.01,2.27,2.25,0,*49
1507201404.54,2711,12.88,72896.0,2.97,1.83,1.67,0,*4E
1507201405.77,2712,12.88,72868.8,2.97,2.01,1.83,0,*4E
1507201406.99,2713,12.88,72898.0,3.01,1.71,1.71,0,*48
1507201408.24,2714,12.88,72908.5,2.97,2.17,2.01,0,*46
1507201409.47,2715,12.88,72906.0,2.97,2.01,1.79,0,*4C
1507201410.72,2716,12.88,72924.0,2.97,2.25,2.13,0,*46
1507201411.97,2717,12.94,72930.0,2.97,2.13,2.05,0,*45
1507201413.2,2718,12.88,72934.0,2.97,2.27,2.17,0,*4E
1507201414.44,2719,12.88,72916.0,2.97,1.89,1.71,0,*4B
1507201415.68,2720,12.88,72896.8,2.97,1.59,1.47,0,*49
1507201416.92,2721,12.88,72884.8,2.93,1.55,1.43,0,*44
1507201418.15,2722,12.88,72888.8,2.95,1.29,1.13,0,*4F
1507201419.37,2723,12.88,72876.0,2.95,1.29,1.13,0,*4E
1507201420.62,2724,12.88,72828.3,2.93,1.29,1.17,0,*4B
1507201421.87,2725,12.88,72834.3,2.93,1.29,1.13,0,*4E
1507201423.11,2726,12.88,72818.0,2.91,1.37,1.21,0,*41
1507201424.35,2727,12.88,72850.0,2.89,0.95,0.71,0,*44
1507201425.59,2728,12.88,72854.8,2.89,0.71,0.59,0,*4B
1507201426.8,2729,12.88,72842.0,2.89,0.97,0.95,0,*42
1507201428.02,2730,12.88,72840.3,2.87,0.55,0.59,0,*4A
1507201429.24,2731,12.88,72840.8,2.87,1.47,1.43,0,*43
1507201430.44,2732,12.88,72850.8,2.85,1.75,1.75,0,*46
1507201431.67,2733,12.88,72862.3,2.87,1.29,1.29,0,*45
1507201432.91,2734,12.94,72900.0,2.85,1.85,1.89,0,*4C
1507201434.16,2735,12.88,72910.0,2.85,1.89,1.97,0,*4E
1507201435.37,2736,12.88,72912.0,2.87,1.89,1.93,0,*4B
1507201436.54,2737,12.88,72914.3,2.87,1.83,1.83,0,*41
1507201437.76,2738,12.88,72914.5,2.87,1.93,1.93,0,*4E
1507201438.99,2739,12.88,72908.8,2.87,2.01,2.01,0,*4F
1507201440.2,2740,12.94,72912.0,2.87,1.89,2.01,0,*42
1507201441.45,2741,12.88,72906.8,2.89,1.93,1.93,0,*4E
1507201442.7,2742,12.88,72908.3,2.89,2.01,2.01,0,*4D
1507201443.92,2743,12.94,72916.3,2.89,1.83,1.89,0,*46
1507201445.13,2744,12.88,72904.3,2.89,1.83,1.89,0,*41
1507201446.38,2745,12.94,72896.8,2.89,2.13,2.21,0,*4B
1507201447.56,2746,12.88,72880.3,2.91,1.75,1.83,0,*49
1507201448.8,2747,12.88,72872.8,2.89,1.89,1.93,0,*43
1507201450.04,2748,12.88,72874.5,2.89,1.89,1.93,0,*4C
1507201451.29,2749,12.88,72864.5,2.89,2.13,2.13,0,*46
1507201452.54,2750,12.94,72874.8,2.89,2.21,2.21,0,*4E
1507201453.75,2751,12.88,72886.3,2.91,2.21,2.25,0,*42
1507201454.97,2752,12.94,72882.3,2.89,2.21,2.31,0,*4D
1507201456.19,2753,12.88,72882.0,2.91,2.21,2.21,0,*44
1507201457.44,2754,12.88,72904.0,2.89,2.01,2.05,0,*4E
1507201458.61,2755,12.88,72910.5,2.91,1.83,1.83,0,*42
1507201459.84,2756,12.88,72914.0,2.91,1.33,1.33,0,*41
1507201461.07,2757,12.88,72920.3,2.89,1.59,1.75,0,*47
1507201462.31,2758,12.94,72916.5,2.89,1.89,1.89,0,*46
1507201463.56,2759,12.88,72912.3,2.89,2.01,2.01,0,*47
1507201464.78,2760,12.94,72926.3,2.91,2.13,2.25,0,*41
1507201465.97,2761,12.94,72930.8,2.89,2.27,2.31,0,*4B
1507201467.23,2762,12.88,72930.0,2.89,2.39,2.43,0,*42
1507201468.45,2763,12.94,72940.8,2.91,2.59,2.59,0,*47
1507201469.66,2764,12.88,72944.3,2.91,2.55,2.65,0,*43
1507201470.88,2765,12.94,72944.5,2.91,2.43,2.55,0,*46
1507201472.1,2766,12.94,72948.0,2.95,2.39,2.47,0,*4F
1507201473.27,2767,12.94,72952.3,2.95,2.27,2.35,0,*44
1507201474.52,2768,12.88,72952.8,2.93,2.51,2.51,0,*4E
1507201475.7,2769,12.88,72956.0,2.95,2.61,2.61,0,*49
1507201476.89,2770,12.94,72950.5,2.95,2.61,2.73,0,*42
1507201478.11,2771,12.88,72940.0,2.95,2.59,2.59,0,*40
1507201479.36,2772,12.94,72946.0,2.97,2.55,2.55,0,*41
1507201480.56,2773,12.88,72952.8,3.01,2.55,2.61,0,*49
1507201481.78,2774,12.88,72942.3,3.01,2.39,2.39,0,*49
1507201482.95,2775,12.88,72938.3,3.01,2.27,2.27,0,*48
1507201484.13,2776,12.88,72934.0,3.01,1.83,1.83,0,*4B
1507201485.34,2777,12.94,72938.0,3.01,1.89,1.93,0,*41
1507201486.56,2778,12.94,72930.3,3.01,1.93,2.05,0,*49
1507201487.76,2779,12.88,72922.3,2.97,1.79,1.79,0,*4A
1507201488.94,2780,12.88,72908.8,3.01,1.79,1.79,0,*42
1507201490.15,2781,12.88,72914.3,3.01,1.67,1.59,0,*4E
1507201491.35,2782,12.94,72902.8,2.95,1.67,1.75,0,*4F
1507201492.56,2783,12.88,72894.8,2.95,1.67,1.67,0,*4D
1507201493.75,2784,12.94,72876.8,2.95,1.75,1.67,0,*49
1507201494.97,2785,12.88,72874.8,2.95,1.55,1.55,0,*4B
1507201496.19,2786,12.88,72878.5,2.95,1.55,1.51,0,*4C
1507201497.44,2787,12.88,72852.5,2.93,1.37,1.25,0,*4C
1507201498.7,2788,12.88,72864.5,2.93,1.13,1.13,0,*40
1507201499.94,2789,12.88,72878.8,2.93,1.25,1.13,0,*44
1507201501.19,2790,12.88,72886.8,2.93,1.37,1.43,0,*4A
1507201502.43,2791,12.88,72892.3,2.93,1.63,1.63,0,*48
1507201503.65,2792,12.88,72894.8,2.91,1.71,1.71,0,*49
1507201504.9,2793,12.94,72910.0,2.93,1.85,1.85,0,*4A
1507201506.09,2794,12.94,72912.0,2.91,1.75,1.63,0,*48
1507201507.32,2795,12.88,72898.8,2.91,1.63,1.63,0,*4E
1507201508.56,2796,12.88,72892.8,2.89,1.59,1.67,0,*49
1507201509.8,2797,12.88,72898.5,2.89,1.47,1.59,0,*4A
1507201511.04,2798,12.88,72906.5,2.89,1.47,1.47,0,*4A
1507201512.25,2799,12.94,72910.5,2.89,1.79,1.79,0,*4B
1507201513.47,2800,12.88,72914.5,2.91,1.93,2.05,0,*41
1507201514.72,2801,12.94,72904.3,2.89,2.05,2.05,0,*45
1507201515.98,2802,12.94,72898.0,2.89,2.17,2.17,0,*46
1507201517.24,2803,12.94,72904.5,2.89,2.17,2.17,0,*47
1507201518.46,2804,12.94,72906.8,2.91,2.05,2.09,0,*45
1507201519.7,2805,12.88,72904.5,2.91,2.17,2.17,0,*48
1507201520.96,2806,12.88,72900.8,2.89,2.17,2.17,0,*42
1507201522.17,2807,12.94,72904.5,2.91,2.21,2.21,0,*4A
1507201523.39,2808,12.94,72904.3,2.91,2.21,2.21,0,*45
1507201524.56,2809,12.94,72900.3,2.91,1.83,1.75,0,*4D
1507201525.79,2810,12.88,72900.5,2.91,1.85,1.85,0,*4C
1507201527.03,2811,12.94,72910.0,2.93,2.21,2.25,0,*4B
1507201528.28,2812,12.94,72904.5,2.93,2.09,2.13,0,*47
1507201529.53,2813,12.94,72906.5,2.93,1.85,1.85,0,*4D
1507201530.77,2814,12.94,72932.3,2.93,1.85,1.97,0,*49
1507201531.99,2815,12.94,72920.5,2.93,1.97,1.79,0,*4B
1507201533.19,2816,12.88,72908.0,2.93,1.79,1.79,0,*48
1507201534.43,2817,12.88,72928.3,2.93,1.89,2.01,0,*4A
1507201535.6,2818,12.94,72922.3,2.95,1.75,1.75,0,*40
1507201536.82,2819,12.94,72902.3,2.93,1.85,1.79,0,*44
1507201538.06,2820,12.94,72878.3,2.93,1.85,1.89,0,*41
1507201539.31,2821,12.94,72888.0,2.93,2.09,2.09,0,*4C
1507201540.55,2822,12.88,72922.3,2.93,1.97,1.89,0,*40
1507201541.76,2823,12.94,72926.3,2.93,1.67,1.75,0,*4D
1507201543.01,2824,12.88,72892.8,2.93,2.09,2.09,0,*49
1507201544.24,2825,12.88,72900.0,2.93,2.21,2.21,0,*48
1507201545.49,2826,12.94,72914.8,2.93,2.09,2.09,0,*4B
1507201546.73,2827,12.88,72906.3,2.93,2.01,1.97,0,*46
1507201547.98,2828,12.88,72914.3,2.93,1.37,1.37,0,*45
1507201549.2,2829,12.94,72936.3,2.91,1.51,1.47,0,*41
1507201550.4,2830,12.94,72924.8,2.91,1.71,1.83,0,*43
1507201551.65,2831,12.94,72910.8,2.89,1.93,2.01,0,*4E
1507201552.88,2832,12.94,72918.3,2.91,2.17,2.17,0,*4C
1507201554.08,2833,12.88,72914.3,2.91,2.25,2.35,0,*4C
1507201555.25,2834,12.88,72912.8,2.91,2.31,2.35,0,*4E
1507201556.46,2835,12.94,72916.3,2.91,2.21,2.21,0,*4B
1507201557.71,2836,12.88,72922.3,2.93,2.25,2.25,0,*4A
1507201558.9,2837,12.94,72908.3,2.93,1.79,1.75,0,*47
1507201560.13,2838,12.94,72924.0,2.93,1.89,1.89,0,*44
1507201561.37,2839,12.94,72946.8,2.93,1.97,1.89,0,*4A
1507201562.59,2840,12.94,72950.3,2.93,1.67,1.75,0,*48
1507201563.82,2841,12.94,72950.5,2.93,1.89,1.89,0,*4A
1507201565.02,2842,12.88,72934.8,2.93,1.79,1.79,0,*49
1507201566.2,2843,12.88,72928.3,2.91,1.75,1.83,0,*43
1507201567.42,2844,12.94,72922.5,2.91,1.93,1.97,0,*49
1507201568.63,2845,12.94,72922.8,2.91,2.05,1.97,0,*44
1507201569.85,2846,12.88,72914.5,2.91,1.93,1.93,0,*4F
1507201571.1,2847,12.94,72912.0,2.93,2.01,2.01,0,*4C
1507201572.29,2848,12.94,72888.0,2.93,1.79,1.75,0,*4F
1507201573.54,2849,12.94,72866.0,2.93,1.55,1.55,0,*42
1507201574.74,2850,12.94,72882.8,2.91,1.71,1.75,0,*4C
1507201575.96,2851,12.88,72880.5,2.91,1.93,1.97,0,*4D
1507201577.19,2852,12.94,72878.8,2.91,2.17,2.17,0,*4A
1507201578.42,2853,12.88,72888.5,2.91,2.09,2.17,0,*44
1507201579.66,2854,12.94,72886.5,2.93,1.89,1.85,0,*42
1507201580.9,2855,12.94,72880.8,2.93,2.13,2.21,0,*4E
1507201582.15,2856,12.94,72884.5,2.93,2.09,2.13,0,*47
1507201583.38,2857,12.94,72896.5,2.93,2.21,2.21,0,*4D
1507201584.62,2858,12.94,72912.8,2.93,2.21,2.21,0,*42
1507201585.86,2859,12.94,72912.5,2.93,1.97,2.01,0,*4F
1507201587.1,2860,12.94,72908.5,2.93,2.09,2.21,0,*43
1507201588.35,2861,12.94,72910.0,2.93,2.13,2.13,0,*48
1507201589.6,2862,12.94,72902.5,2.93,1.85,1.85,0,*4B
1507201590.85,2863,12.94,72906.3,2.93,1.97,2.09,0,*4E
1507201592.06,2864,12.88,72906.8,2.95,2.21,2.25,0,*4F
1507201593.26,2865,12.94,72922.3,2.93,2.27,2.27,0,*4C
1507201594.42,2866,12.94,72922.0,2.95,2.27,2.35,0,*4A
1507201595.62,2867,12.88,72924.3,2.93,2.27,2.27,0,*4E
1507201596.83,2868,12.94,72932.0,2.95,2.21,2.25,0,*43
1507201598.02,2869,12.94,72942.3,2.95,2.25,2.27,0,*44
1507201599.24,2870,12.94,72940.8,2.95,1.97,1.97,0,*4E
1507201600.44,2871,12.94,72932.0,2.91,-2.59,-3.87,0,*49
1507201601.66,2872,12.94,72930.8,2.85,-1.29,-1.67,0,*47
1507201602.88,2873,12.94,72924.0,2.81,0.37,0.05,0,*79
1507201604.11,2874,12.94,72914.5,2.81,1.21,1.01,0,*4D
1507201605.33,2875,12.94,72916.5,2.81,1.47,1.41,0,*48
1507201606.53,2876,12.94,72918.3,2.81,1.75,1.75,0,*4D
1507201607.79,2877,12.94,72916.3,2.81,1.97,2.05,0,*44
1507201609.02,2878,12.94,72924.0,2.83,2.17,2.25,0,*40
1507201610.22,2879,12.94,72922.5,2.83,2.35,2.47,0,*45
1507201611.44,2880,12.94,72918.3,2.83,2.39,2.39,0,*46
1507201612.61,2881,12.94,72922.5,2.87,2.27,2.27,0,*43
1507201613.78,2882,12.94,72928.0,2.87,2.27,2.31,0,*47
1507201614.95,2883,12.94,72928.3,2.87,2.27,2.31,0,*46
1507201616.15,2884,12.94,72932.0,2.87,2.31,2.39,0,*4E
1507201617.38,2885,12.94,72940.5,2.87,2.39,2.55,0,*4D
1507201618.63,2886,12.94,72936.8,2.89,2.43,2.55,0,*4D
1507201619.85,2887,12.94,72942.5,2.91,2.39,2.43,0,*4F
1507201621.08,2888,12.94,72940.5,2.91,2.43,2.47,0,*49
1507201622.28,2889,12.94,72942.8,2.89,2.61,2.61,0,*45
1507201623.53,2890,12.94,72938.0,2.93,2.69,2.73,0,*4D
1507201624.77,2891,12.94,72938.0,2.93,2.59,2.73,0,*4F
1507201626.0,2892,12.94,72938.3,2.93,2.59,2.61,0,*4F
1507201627.2,2893,12.94,72932.3,3.01,2.55,2.65,0,*4C
1507201628.4,2894,12.94,72936.0,2.97,2.61,2.65,0,*42
1507201629.62,2895,12.94,72930.0,2.95,2.59,2.69,0,*46
1507201630.85,2896,12.94,72916.5,2.97,2.51,2.61,0,*47
1507201632.11,2897,12.94,72920.5,2.97,2.43,2.39,0,*48
1507201633.36,2898,12.94,72928.8,2.97,2.39,2.43,0,*47
1507201634.58,2899,12.94,72926.8,3.01,2.43,2.55,0,*42
1507201635.81,2900,12.94,72916.5,3.01,2.39,2.51,0,*4A
1507201637.03,2901,12.94,72912.8,3.01,2.43,2.39,0,*48
1507201638.26,2902,12.94,72920.3,3.01,2.43,2.51,0,*45
1507201639.49,2903,12.94,72926.5,3.01,2.39,2.51,0,*49
1507201640.7,2904,12.94,72928.5,3.05,2.51,2.61,0,*47
1507201641.93,2905,12.94,72944.0,3.05,2.39,2.47,0,*4C
1507201643.13,2906,12.94,72942.0,3.05,2.35,2.39,0,*4A
1507201644.38,2907,12.94,72944.0,3.07,2.39,2.39,0,*45
1507201645.55,2908,12.94,72952.0,3.05,2.31,2.35,0,*4C
1507201646.77,2909,12.94,72950.8,3.05,2.21,2.25,0,*4D
1507201648.02,2910,12.94,72952.3,3.07,2.25,2.25,0,*43
1507201649.24,2911,12.94,72962.3,3.05,2.21,2.25,0,*44
1507201650.47,2912,12.94,72940.5,3.05,2.13,2.13,0,*43
1507201651.69,2913,12.94,72946.3,3.05,2.09,2.13,0,*49
1507201652.92,2914,12.94,72958.3,3.05,1.85,1.89,0,*49
1507201654.15,2915,12.94,72948.3,3.05,1.85,1.85,0,*44
1507201655.35,2916,12.94,72966.3,3.05,1.79,1.85,0,*44
1507201656.58,2917,12.94,72968.0,3.01,1.29,1.21,0,*4A
1507201657.81,2918,12.94,72962.5,3.01,1.29,1.43,0,*41
1507201659.02,2919,12.94,72960.5,3.01,1.47,1.47,0,*4C
1507201660.27,2920,12.94,72978.8,2.97,1.55,1.55,0,*48
1507201661.52,2921,12.94,72966.8,2.97,1.67,1.59,0,*44
1507201662.76,2922,12.94,72962.8,2.97,1.67,1.67,0,*4A
1507201663.97,2923,12.94,72946.0,2.95,1.89,1.97,0,*46
1507201665.19,2924,12.94,72932.5,2.95,1.97,2.01,0,*42
1507201666.41,2925,12.94,72920.3,2.95,1.63,1.67,0,*4B
1507201667.63,2926,12.94,72900.3,2.95,1.55,1.55,0,*4C
1507201668.82,2927,12.94,72888.5,2.95,1.75,1.67,0,*4E
1507201670.07,2928,12.94,72898.3,2.93,2.09,2.09,0,*44
1507201671.28,2929,12.94,72898.5,2.95,2.21,2.21,0,*43
1507201672.53,2930,12.94,72912.3,2.93,2.09,2.13,0,*46
1507201673.78,2931,12.94,72926.5,2.97,2.13,2.17,0,*4C
1507201675.03,2932,12.94,72924.3,2.97,2.05,2.13,0,*4C
1507201676.25,2933,12.94,72922.8,2.95,1.67,1.67,0,*48
1507201677.49,2934,12.94,72918.0,2.93,1.55,1.63,0,*4C
1507201678.71,2935,12.94,72904.0,2.93,1.37,1.41,0,*49
1507201679.91,2936,12.94,72880.3,2.95,1.37,1.41,0,*4C
1507201681.16,2937,12.94,72898.8,2.93,1.37,1.29,0,*45
1507201682.35,2938,12.94,72904.0,2.93,1.01,1.01,0,*45
1507201683.57,2939,12.94,72904.5,2.91,1.25,1.25,0,*46
1507201684.76,2940,12.94,72894.5,2.91,1.47,1.41,0,*4E
1507201685.95,2941,12.94,72898.5,2.91,1.41,1.47,0,*4F
1507201687.21,2942,12.94,72868.3,2.89,1.29,1.25,0,*4F
1507201688.47,2943,12.94,72872.3,2.89,1.29,1.29,0,*42
1507201689.71,2944,12.94,72872.5,2.89,1.43,1.59,0,*4E
1507201690.96,2945,12.94,72876.5,2.89,1.55,1.59,0,*48
1507201692.2,2946,12.94,72868.3,2.89,1.47,1.47,0,*47
1507201693.44,2947,12.94,72922.8,2.89,0.87,0.95,0,*45
1507201694.65,2948,12.94,72896.3,2.87,0.75,0.71,0,*43
1507201695.86,2949,12.94,72892.5,2.85,1.25,1.41,0,*46
1507201697.08,2950,12.94,72890.5,2.87,1.51,1.59,0,*46
1507201698.3,2951,12.94,72910.8,2.87,1.71,1.71,0,*4F
1507201699.54,2952,12.94,72910.8,2.85,1.43,1.43,0,*4E
1507201700.78,2953,12.94,72908.0,2.85,1.51,1.43,0,*4C
1507201702.03,2954,12.94,72912.0,2.85,1.67,1.67,0,*48
1507201703.27,2955,12.94,72936.3,2.85,1.89,1.97,0,*46
1507201704.51,2956,12.94,72942.5,2.85,1.89,1.89,0,*4A
1507201705.68,2957,12.94,72942.0,2.87,1.83,1.83,0,*49
1507201706.85,2958,12.94,72956.0,2.87,1.83,1.83,0,*46
1507201708.03,2959,12.94,72952.0,2.87,1.79,1.83,0,*42
1507201709.22,2960,12.94,72940.5,2.87,1.83,1.89,0,*47
1507201710.47,2961,12.94,72936.3,2.85,1.85,1.93,0,*49
1507201711.69,2962,12.94,72948.0,2.87,1.93,1.93,0,*4F
1507201712.91,2963,12.94,72954.3,2.87,2.01,2.05,0,*4A
1507201714.13,2964,12.94,72956.3,2.87,1.55,1.55,0,*49
1507201715.35,2965,12.94,72958.3,2.87,1.67,1.67,0,*48
1507201716.53,2966,12.94,72956.8,2.87,1.83,1.83,0,*4B
1507201717.75,2967,12.94,72964.3,2.87,1.93,2.05,0,*46
1507201718.97,2968,12.94,72956.5,2.87,2.13,2.13,0,*45
1507201720.16,2969,12.94,72954.5,2.87,2.21,2.31,0,*45
1507201721.42,2970,12.94,72944.3,2.89,2.51,2.51,0,*42
1507201722.67,2971,12.94,72952.0,2.89,2.43,2.55,0,*44
1507201723.92,2972,12.94,72990.5,2.89,2.55,2.55,0,*40
1507201725.15,2973,12.94,72974.0,2.91,2.17,2.09,0,*47
1507201726.38,2974,12.94,72974.5,2.93,1.89,1.89,0,*4D
1507201727.6,2975,12.94,72962.8,2.91,1.97,1.97,0,*4E
1507201728.78,2976,12.94,72980.3,2.91,1.83,1.75,0,*44
1507201730.0,2977,12.94,72950.0,2.91,1.97,1.97,0,*4C
1507201731.23,2978,12.94,72912.5,2.91,2.17,2.25,0,*42
1507201732.45,2979,12.94,72890.5,2.91,2.25,2.25,0,*42
1507201733.67,2980,12.94,72878.8,2.91,2.09,2.09,0,*44
1507201734.9,2981,12.94,72880.5,2.91,1.97,2.05,0,*4D
1507201736.13,2982,12.94,72892.5,2.91,2.17,2.09,0,*49
1507201737.37,2983,12.94,72892.0,2.93,2.09,2.13,0,*4E
1507201738.62,2984,12.94,72904.5,2.93,2.01,2.01,0,*42
1507201739.86,2985,12.94,72908.5,2.93,2.13,2.13,0,*43
1507201741.08,2986,12.94,72896.5,2.95,2.01,2.01,0,*46
1507201742.29,2987,12.94,72930.0,2.95,2.21,2.21,0,*47
1507201743.52,2988,12.94,72934.5,2.95,2.39,2.39,0,*48
1507201744.74,2989,12.94,72938.3,2.95,2.47,2.39,0,*40